アトラス彗星

C/2024 M1 ( ATLAS )

English version
Home page
Updated on February 10, 2025

---------------------------------------------------------------------

・ プロフィール

発見日 2024年6月29日
発見光度 17.8等
発見者 Asteroid Terrestrial-Impact Last Alert System (ATLAS) search program

・ 写真集

・ 軌道要素

Epoch 2024 Oct. 17.0 TT = JDT 2460600.5
T 2024 Nov. 20.03300 TT                                 Rudenko
q   1.7033577            (2000.0)            P               Q
n   0.00603146     Peri.  345.60322     +0.29853215     -0.20461637
a  29.8896577      Node    76.21481     +0.94275743     -0.08887446
e   0.9430118      Incl.   73.71019     +0.14861689     +0.97479920
P 163
From 474 observations 2022 May 10-2024 Nov. 13, mean residual 0".4.

・ 星図

・ 光度変化

        H = 13.0  G = 0.15

---------------------------------------------------------------------

軌道要素はM.P.E.C. 2024-V192に掲載されたものです。
星図はステラナビゲータ Ver.11 (アストロアーツ) で作成したものです。
光度グラフはComet for Windowsで作成したものです。

---------------------------------------------------------------------

Copyright(C) Seiichi Yoshida (comet@aerith.net). All rights reserved.